Location: Recife
(8.0585°S, 34.8848°W)
Time: 09:52:15
(UTC-03:00)

Courier 1B Rocket - Pass Details

Date: 22 April 2026
Orbit: 920 x 1201 km, 28.2° (Epoch: 13 May)

Event Time Altitude Azimuth Distance (km) Brightness Sun altitude
Rises 09:00:41 0° 226° (SW) 3,746 7.7 50.3°
Reaches altitude 10° 09:03:51 10° 213° (SSW) 2,842 7.2 50.9°
Maximum altitude 09:09:28 25° 160° (SSE) 2,018 6.9 52.1°
Drops below altitude 10° 09:15:22 10° 106° (ESE) 3,007 8.1 53.3°
Sets 09:18:48 0° 94° (E) 4,008 8.6 54.0°
